Overview Statistics Trail Chart Weather Telemetry Raw packets
 

This is the latest recevied weather packets stored in our database for station/object VK5GR-12. If no packets are shown the sender has not sent any weather packets the latest 10 day(s).

<< 10 11 12 13 14 15 16 >>
Time Temp. Humidity Pressure Rain* Wind** Luminosity Snow
1788405432 15.56° C 77% 1018.9 hPa 0 mm - 182 W/m² -
1788404529 15.56° C 82% 1018.7 hPa 0 mm - 236 W/m² -
1788403625 15° C 86% 1018.7 hPa 0 mm - 354 W/m² -
1788402721 15° C 89% 1018.9 hPa 0 mm - 173 W/m² -
1788401820 13.89° C 93% 1019 hPa 0 mm - 142 W/m² -
1788400916 13.89° C 95% 1018.9 hPa 0 mm - 283 W/m² -
1788400014 13.89° C 94% 1018.8 hPa 0 mm - 326 W/m² -
1788399114 13.89° C 93% 1019 hPa 1.27 mm - 68 W/m² -
1788398212 13.89° C 89% 1018.6 hPa 0 mm - 106 W/m² -
1788397312 14.44° C 87% 1018.5 hPa 0 mm - 127 W/m² -
1788396409 14.44° C 87% 1018.4 hPa 0 mm - 140 W/m² -
1788395506 13.89° C 88% 1018.3 hPa 0 mm - 110 W/m² -
1788394602 13.89° C 89% 1018.4 hPa 0 mm - 83 W/m² -
1788393697 13.89° C 89% 1018.5 hPa 0 mm - 106 W/m² -
1788392797 13.89° C 91% 1018.3 hPa 0 mm - 58 W/m² -
1788391897 13.33° C 92% 1018.1 hPa 0 mm - 101 W/m² -
1788390995 12.78° C 92% 1018.2 hPa 0 mm - 58 W/m² -
1788390096 11.67° C 92% 1018.1 hPa 0 mm - 109 W/m² -
1788389195 11.67° C 92% 1017.9 hPa 0 mm - 65 W/m² -
1788388292 11.67° C 92% 1017.7 hPa 0 mm - 36 W/m² -
1788387390 11.67° C 92% 1017.4 hPa 0 mm - 51 W/m² -
1788386487 11.67° C 92% 1017.1 hPa 0 mm - 34 W/m² -
1788385585 11.67° C 92% 1017 hPa 0 mm - 10 W/m² -
1788384684 11.67° C 91% 1016.7 hPa 0 mm - 7 W/m² -
1788383784 11.67° C 91% 1016.6 hPa 0 mm - 6 W/m² -

* Rain latest hour (hover to see other rain measurements)
** Current wind speed in m/s (hover to see current wind gust speed)